When you browse on this site, cookies collect data to enhance your experience and personalize the content and advertising you see.
Visit our Privacy Policy to learn more. By continuing to use the site, you agree to this use of cookies and data.
  • En España
  • Lista de países
  • Para 7 días
  • Temperatura del agua
  • Mapa Satelital
  • El tiempo en el mapa
  • Informadores
  • user-avatar
    Iniciar sesión

    Tiempo cada hora Silves

    Hoy, 14 Diciembre, Viernes

    Tiempo Temperatura Precipitaciones Viento Presión Humedad
    00:00 +8°C° 0 mm 4 mps 762 mmHg 86%
    01:00 +7°C° 0 mm 4 mps 762 mmHg 87%
    02:00 +7°C° 0 mm 4 mps 762 mmHg 89%
    03:00 +7°C° 0 mm 4 mps 762 mmHg 89%
    04:00 +7°C° 0 mm 4 mps 762 mmHg 90%
    05:00 +7°C° 0 mm 4 mps 763 mmHg 91%
    06:00 +8°C° 0 mm 4 mps 763 mmHg 88%
    07:00 +10°C° 0 mm 4 mps 763 mmHg 85%
    08:00 +10°C° 0 mm 4 mps 763 mmHg 83%
    09:00 +12°C° 0 mm 4 mps 764 mmHg 76%
    10:00 +13°C° 0 mm 4 mps 764 mmHg 69%
    11:00 +15°C° 0 mm 4 mps 764 mmHg 62%
    12:00 +15°C° 0 mm 4 mps 764 mmHg 62%
    13:00 +15°C° 0 mm 4 mps 764 mmHg 62%
    14:00 +15°C° 0 mm 4 mps 764 mmHg 62%
    15:00 +14°C° 0 mm 3 mps 764 mmHg 69%
    16:00 +12°C° 0 mm 3 mps 764 mmHg 76%
    17:00 +12°C° 0 mm 2 mps 764 mmHg 83%
    18:00 +12°C° 0 mm 2 mps 764 mmHg 86%
    19:00 +11°C° 0 mm 1 mps 764 mmHg 88%
    20:00 +11°C° 0 mm 1 mps 765 mmHg 90%
    21:00 +11°C° 0 mm 1 mps 765 mmHg 91%
    22:00 +10°C° 0 mm 1 mps 765 mmHg 91%
    23:00 +10°C° 0 mm 1 mps 765 mmHg 91%

    Mañana, 15 Diciembre, Sábado

    Tiempo Temperatura Precipitaciones Viento Presión Humedad
    00:00 +10°C° 0 mm 1 mps 765 mmHg 91%
    01:00 +10°C° 0 mm 1 mps 765 mmHg 91%
    02:00 +10°C° 0 mm 1 mps 765 mmHg 91%
    03:00 +10°C° 0 mm 1 mps 764 mmHg 91%
    04:00 +10°C° 0 mm 1 mps 764 mmHg 91%
    05:00 +10°C° 0 mm 1 mps 764 mmHg 90%
    06:00 +11°C° 0 mm 1 mps 764 mmHg 87%
    07:00 +11°C° 0 mm 1 mps 764 mmHg 84%
    08:00 +12°C° 0 mm 2 mps 765 mmHg 81%
    09:00 +14°C° 0 mm 2 mps 765 mmHg 75%
    10:00 +16°C° 0 mm 2 mps 765 mmHg 68%
    11:00 +18°C° 0 mm 2 mps 765 mmHg 61%
    12:00 +18°C° 0 mm 2 mps 764 mmHg 61%
    13:00 +19°C° 0 mm 2 mps 764 mmHg 61%
    14:00 +19°C° 0 mm 3 mps 763 mmHg 61%
    15:00 +17°C° 0 mm 3 mps 763 mmHg 70%
    16:00 +15°C° 0 mm 2 mps 763 mmHg 80%
    17:00 +14°C° 0 mm 2 mps 763 mmHg 89%
    18:00 +13°C° 0 mm 2 mps 763 mmHg 90%
    19:00 +13°C° 0 mm 2 mps 763 mmHg 92%
    20:00 +12°C° 0 mm 2 mps 763 mmHg 94%
    21:00 +12°C° 0 mm 2 mps 763 mmHg 94%
    22:00 +11°C° 0 mm 3 mps 763 mmHg 94%
    23:00 +11°C° 0 mm 3 mps 763 mmHg 95%

    Pasado mañana, 16 Diciembre, Domingo

    Tiempo Temperatura Precipitaciones Viento Presión Humedad
    00:00 +11°C° 0 mm 3 mps 762 mmHg 95%
    01:00 +11°C° 0 mm 4 mps 762 mmHg 96%
    02:00 +11°C° 0 mm 4 mps 761 mmHg 96%
    03:00 +12°C° 0 mm 4 mps 761 mmHg 96%
    04:00 +12°C° 0 mm 5 mps 761 mmHg 96%
    05:00 +13°C° 0 mm 5 mps 760 mmHg 96%
    06:00 +13°C° 0.1 mm 5 mps 761 mmHg 95%
    07:00 +14°C° 0.1 mm 5 mps 761 mmHg 94%
    08:00 +15°C° 0.1 mm 5 mps 761 mmHg 94%
    09:00 +15°C° 1.3 mm 5 mps 762 mmHg 93%
    10:00 +14°C° 1.3 mm 6 mps 762 mmHg 92%
    11:00 +14°C° 1.3 mm 6 mps 762 mmHg 92%
    12:00 +15°C° 0.1 mm 5 mps 762 mmHg 85%
    13:00 +15°C° 0.1 mm 5 mps 762 mmHg 78%
    14:00 +17°C° 0.1 mm 4 mps 761 mmHg 71%
    15:00 +14°C° 0 mm 4 mps 762 mmHg 76%
    16:00 +13°C° 0 mm 3 mps 762 mmHg 82%
    17:00 +12°C° 0 mm 3 mps 763 mmHg 87%
    18:00 +11°C° 0 mm 3 mps 763 mmHg 89%
    19:00 +11°C° 0 mm 3 mps 764 mmHg 91%
    20:00 +11°C° 0 mm 3 mps 764 mmHg 92%
    21:00 +10°C° 0 mm 3 mps 764 mmHg 93%
    22:00 +10°C° 0 mm 2 mps 764 mmHg 94%
    23:00 +10°C° 0 mm 2 mps 764 mmHg 95%

    17 Diciembre, Lunes

    Tiempo Temperatura Precipitaciones Viento Presión Humedad
    00:00 +9°C° 0 mm 2 mps 764 mmHg 94%
    01:00 +9°C° 0 mm 2 mps 764 mmHg 94%
    02:00 +9°C° 0 mm 2 mps 764 mmHg 94%
    03:00 +8°C° 0 mm 2 mps 764 mmHg 94%
    04:00 +8°C° 0 mm 2 mps 764 mmHg 93%
    05:00 +8°C° 0 mm 2 mps 764 mmHg 93%
    06:00 +8°C° 0 mm 2 mps 764 mmHg 90%
    07:00 +9°C° 0 mm 2 mps 765 mmHg 86%
    08:00 +9°C° 0 mm 2 mps 765 mmHg 83%
    09:00 +12°C° 0 mm 2 mps 765 mmHg 74%
    10:00 +14°C° 0 mm 2 mps 765 mmHg 66%
    11:00 +15°C° 0 mm 2 mps 765 mmHg 57%
    12:00 +16°C° 0 mm 2 mps 764 mmHg 54%
    13:00 +16°C° 0 mm 2 mps 763 mmHg 51%
    14:00 +18°C° 0 mm 1 mps 763 mmHg 48%
    15:00 +15°C° 0 mm 1 mps 763 mmHg 54%
    16:00 +14°C° 0 mm 1 mps 763 mmHg 60%
    17:00 +12°C° 0 mm 1 mps 763 mmHg 66%
    18:00 +11°C° 0 mm 1 mps 763 mmHg 70%
    19:00 +10°C° 0 mm 2 mps 763 mmHg 73%
    20:00 +9°C° 0 mm 2 mps 763 mmHg 76%
    21:00 +9°C° 0 mm 2 mps 763 mmHg 77%
    22:00 +9°C° 0 mm 2 mps 763 mmHg 77%
    23:00 +9°C° 0 mm 2 mps 763 mmHg 77%

    18 Diciembre, Martes

    Tiempo Temperatura Precipitaciones Viento Presión Humedad
    00:00 +9°C° 0 mm 2 mps 762 mmHg 77%
    01:00 +9°C° 0 mm 2 mps 762 mmHg 77%
    02:00 +9°C° 0 mm 2 mps 762 mmHg 77%
    03:00 +9°C° 0 mm 2 mps 761 mmHg 80%
    04:00 +9°C° 0 mm 2 mps 761 mmHg 83%
    05:00 +8°C° 0 mm 2 mps 761 mmHg 85%
    06:00 +9°C° 0 mm 3 mps 761 mmHg 84%
    07:00 +10°C° 0 mm 3 mps 761 mmHg 83%
    08:00 +11°C° 0 mm 3 mps 762 mmHg 82%
    09:00 +13°C° 0 mm 4 mps 761 mmHg 78%
    10:00 +15°C° 0 mm 5 mps 761 mmHg 74%
    11:00 +17°C° 0 mm 6 mps 761 mmHg 70%
    12:00 +17°C° 0 mm 5 mps 761 mmHg 75%
    13:00 +16°C° 0 mm 5 mps 760 mmHg 80%
    14:00 +16°C° 0 mm 5 mps 760 mmHg 84%
    15:00 +16°C° 0.1 mm 5 mps 760 mmHg 87%
    16:00 +15°C° 0.1 mm 5 mps 760 mmHg 90%
    17:00 +15°C° 0.1 mm 5 mps 760 mmHg 92%
    18:00 +15°C° 0.1 mm 5 mps 760 mmHg 93%
    19:00 +15°C° 0.1 mm 5 mps 760 mmHg 94%
    20:00 +15°C° 0.1 mm 5 mps 761 mmHg 95%
    21:00 +15°C° 0.2 mm 5 mps 760 mmHg 94%
    22:00 +15°C° 0.2 mm 5 mps 760 mmHg 93%
    23:00 +15°C° 0.2 mm 5 mps 760 mmHg 92%

    19 Diciembre, Miércoles

    Tiempo Temperatura Precipitaciones Viento Presión Humedad
    00:00 +15°C° 1.1 mm 5 mps 760 mmHg 93%
    01:00 +15°C° 1.1 mm 5 mps 760 mmHg 94%
    02:00 +15°C° 1.1 mm 5 mps 760 mmHg 95%
    03:00 +15°C° 0.8 mm 4 mps 760 mmHg 96%
    04:00 +15°C° 0.8 mm 4 mps 760 mmHg 97%
    05:00 +14°C° 0.8 mm 3 mps 760 mmHg 97%
    06:00 +14°C° 0.2 mm 3 mps 761 mmHg 97%
    07:00 +14°C° 0.2 mm 3 mps 761 mmHg 97%
    08:00 +14°C° 0.2 mm 3 mps 761 mmHg 96%
    09:00 +14°C° 0.5 mm 3 mps 761 mmHg 96%
    10:00 +13°C° 0.5 mm 3 mps 761 mmHg 95%
    11:00 +13°C° 0.5 mm 3 mps 761 mmHg 94%
    12:00 +13°C° 0.1 mm 3 mps 761 mmHg 91%
    13:00 +13°C° 0.1 mm 3 mps 761 mmHg 89%
    14:00 +12°C° 0.1 mm 4 mps 761 mmHg 86%
    15:00 +12°C° 0.2 mm 3 mps 761 mmHg 86%
    16:00 +11°C° 0.2 mm 3 mps 761 mmHg 86%
    17:00 +11°C° 0.2 mm 3 mps 761 mmHg 85%
    18:00 +10°C° 0.1 mm 3 mps 761 mmHg 85%
    19:00 +10°C° 0.1 mm 3 mps 762 mmHg 84%
    20:00 +9°C° 0.1 mm 3 mps 762 mmHg 83%
    21:00 +9°C° 0 mm 3 mps 762 mmHg 84%
    22:00 +9°C° 0 mm 3 mps 762 mmHg 85%
    23:00 +8°C° 0 mm 3 mps 762 mmHg 85%
    Mostrar más